• In Netherlands
  • List of Countries
  • For 7 days
  • Water Temperature
  • Satellite Maps
  • Weather Map
  • Weather Widgets
  • user-avatar
    Login

    Hourly Weather Vitebsk

    Today, 24 June, Saturday

    Time Temperature Precipitation Wind Pressure Humidity
    00:00 +8°C° 0 mm 1 mps 739 mmHg 88%
    01:00 +8°C° 0 mm 1 mps 740 mmHg 89%
    02:00 +6°C° 0 mm 1 mps 740 mmHg 91%
    03:00 +8°C° 0 mm 1 mps 740 mmHg 90%
    04:00 +9°C° 0 mm 1 mps 740 mmHg 88%
    05:00 +10°C° 0 mm 0 mps 740 mmHg 87%
    06:00 +12°C° 0 mm 1 mps 741 mmHg 81%
    07:00 +14°C° 0 mm 1 mps 741 mmHg 75%
    08:00 +17°C° 0 mm 2 mps 740 mmHg 67%
    09:00 +18°C° 0 mm 2 mps 740 mmHg 63%
    10:00 +19°C° 0 mm 2 mps 740 mmHg 59%
    11:00 +20°C° 0 mm 2 mps 740 mmHg 55%
    12:00 +20°C° 0.1 mm 2 mps 740 mmHg 57%
    13:00 +20°C° 0.1 mm 3 mps 740 mmHg 59%
    14:00 +20°C° 0.1 mm 3 mps 739 mmHg 60%
    15:00 +20°C° 0.2 mm 3 mps 739 mmHg 67%
    16:00 +19°C° 0.2 mm 3 mps 739 mmHg 74%
    17:00 +19°C° 0.2 mm 3 mps 739 mmHg 81%
    18:00 +18°C° 0.2 mm 3 mps 739 mmHg 86%
    19:00 +17°C° 0.2 mm 3 mps 739 mmHg 90%
    20:00 +16°C° 0.2 mm 2 mps 739 mmHg 95%
    21:00 +14°C° 0.5 mm 3 mps 739 mmHg 96%
    22:00 +14°C° 0.5 mm 3 mps 739 mmHg 96%
    23:00 +14°C° 0.5 mm 4 mps 739 mmHg 97%

    Tomorrow, 25 June, Sunday

    Time Temperature Precipitation Wind Pressure Humidity
    00:00 +14°C° 0.1 mm 4 mps 739 mmHg 97%
    01:00 +13°C° 0.1 mm 4 mps 739 mmHg 97%
    02:00 +13°C° 0.1 mm 4 mps 739 mmHg 97%
    03:00 +13°C° 0 mm 4 mps 739 mmHg 97%
    04:00 +13°C° 0 mm 4 mps 739 mmHg 97%
    05:00 +13°C° 0 mm 4 mps 739 mmHg 96%
    06:00 +14°C° 0.1 mm 4 mps 739 mmHg 95%
    07:00 +14°C° 0.1 mm 4 mps 739 mmHg 95%
    08:00 +15°C° 0.1 mm 4 mps 739 mmHg 94%
    09:00 +15°C° 0.3 mm 5 mps 739 mmHg 93%
    10:00 +16°C° 0.3 mm 5 mps 739 mmHg 92%
    11:00 +16°C° 0.3 mm 5 mps 739 mmHg 91%
    12:00 +17°C° 0.2 mm 6 mps 740 mmHg 86%
    13:00 +19°C° 0.2 mm 6 mps 740 mmHg 81%
    14:00 +20°C° 0.2 mm 7 mps 740 mmHg 76%
    15:00 +20°C° 0.1 mm 6 mps 740 mmHg 75%
    16:00 +20°C° 0.1 mm 6 mps 740 mmHg 74%
    17:00 +20°C° 0.1 mm 6 mps 740 mmHg 72%
    18:00 +17°C° 0 mm 5 mps 740 mmHg 76%
    19:00 +17°C° 0 mm 4 mps 740 mmHg 81%
    20:00 +16°C° 0 mm 3 mps 740 mmHg 85%
    21:00 +15°C° 0 mm 2 mps 741 mmHg 87%
    22:00 +13°C° 0 mm 2 mps 741 mmHg 90%
    23:00 +12°C° 0 mm 2 mps 741 mmHg 93%

    Day after tomorrow, 26 June, Monday

    Time Temperature Precipitation Wind Pressure Humidity
    00:00 +12°C° 0 mm 2 mps 741 mmHg 93%
    01:00 +12°C° 0 mm 3 mps 740 mmHg 94%
    02:00 +12°C° 0 mm 3 mps 740 mmHg 94%
    03:00 +13°C° 0.1 mm 4 mps 740 mmHg 92%
    04:00 +14°C° 0.1 mm 4 mps 739 mmHg 91%
    05:00 +15°C° 0.1 mm 5 mps 739 mmHg 89%
    06:00 +16°C° 0.2 mm 5 mps 739 mmHg 87%
    07:00 +17°C° 0.2 mm 6 mps 738 mmHg 85%
    08:00 +20°C° 0.2 mm 6 mps 738 mmHg 83%
    09:00 +20°C° 0.4 mm 6 mps 738 mmHg 84%
    10:00 +20°C° 0.4 mm 6 mps 737 mmHg 84%
    11:00 +21°C° 0.4 mm 6 mps 737 mmHg 84%
    12:00 +21°C° 0.8 mm 6 mps 737 mmHg 83%
    13:00 +22°C° 0.8 mm 7 mps 736 mmHg 82%
    14:00 +22°C° 0.8 mm 7 mps 736 mmHg 81%
    15:00 +21°C° 0.6 mm 7 mps 736 mmHg 82%
    16:00 +21°C° 0.6 mm 7 mps 736 mmHg 83%
    17:00 +20°C° 0.6 mm 6 mps 736 mmHg 85%
    18:00 +19°C° 0.1 mm 6 mps 736 mmHg 86%
    19:00 +16°C° 0.1 mm 5 mps 737 mmHg 87%
    20:00 +15°C° 0.1 mm 4 mps 737 mmHg 88%
    21:00 +14°C° 0 mm 4 mps 738 mmHg 86%
    22:00 +13°C° 0 mm 5 mps 738 mmHg 85%
    23:00 +12°C° 0 mm 5 mps 738 mmHg 84%

    27 June, Tuesday

    Time Temperature Precipitation Wind Pressure Humidity
    00:00 +10°C° 0 mm 5 mps 739 mmHg 85%
    01:00 +10°C° 0 mm 5 mps 739 mmHg 86%
    02:00 +9°C° 0 mm 5 mps 739 mmHg 88%
    03:00 +9°C° 0 mm 5 mps 740 mmHg 88%
    04:00 +9°C° 0 mm 5 mps 740 mmHg 89%
    05:00 +10°C° 0 mm 5 mps 740 mmHg 89%
    06:00 +12°C° 0 mm 5 mps 741 mmHg 84%
    07:00 +13°C° 0 mm 6 mps 741 mmHg 80%
    08:00 +15°C° 0 mm 6 mps 741 mmHg 75%
    09:00 +16°C° 0 mm 7 mps 741 mmHg 70%
    10:00 +17°C° 0 mm 7 mps 742 mmHg 64%
    11:00 +18°C° 0 mm 8 mps 742 mmHg 59%
    12:00 +18°C° 0 mm 8 mps 742 mmHg 60%
    13:00 +18°C° 0 mm 8 mps 742 mmHg 60%
    14:00 +18°C° 0 mm 8 mps 742 mmHg 61%
    15:00 +18°C° 0 mm 7 mps 743 mmHg 62%
    16:00 +18°C° 0 mm 7 mps 743 mmHg 63%
    17:00 +19°C° 0 mm 6 mps 743 mmHg 65%
    18:00 +16°C° 0 mm 5 mps 743 mmHg 70%
    19:00 +15°C° 0 mm 4 mps 743 mmHg 76%
    20:00 +14°C° 0 mm 3 mps 743 mmHg 82%
    21:00 +13°C° 0 mm 3 mps 744 mmHg 85%
    22:00 +12°C° 0 mm 3 mps 744 mmHg 88%
    23:00 +11°C° 0 mm 3 mps 744 mmHg 91%

    28 June, Wednesday

    Time Temperature Precipitation Wind Pressure Humidity
    00:00 +10°C° 0 mm 3 mps 744 mmHg 92%
    01:00 +10°C° 0 mm 3 mps 745 mmHg 92%
    02:00 +9°C° 0 mm 3 mps 745 mmHg 93%
    03:00 +9°C° 0 mm 2 mps 745 mmHg 93%
    04:00 +10°C° 0 mm 2 mps 745 mmHg 92%
    05:00 +10°C° 0 mm 2 mps 745 mmHg 91%
    06:00 +13°C° 0 mm 2 mps 746 mmHg 84%
    07:00 +14°C° 0 mm 2 mps 746 mmHg 76%
    08:00 +16°C° 0 mm 2 mps 746 mmHg 68%
    09:00 +17°C° 0 mm 2 mps 746 mmHg 64%
    10:00 +18°C° 0 mm 2 mps 747 mmHg 60%
    11:00 +19°C° 0 mm 2 mps 747 mmHg 56%
    12:00 +20°C° 0 mm 2 mps 747 mmHg 55%
    13:00 +21°C° 0 mm 2 mps 747 mmHg 53%
    14:00 +21°C° 0 mm 2 mps 747 mmHg 51%
    15:00 +21°C° 0 mm 2 mps 747 mmHg 53%
    16:00 +21°C° 0 mm 2 mps 746 mmHg 55%
    17:00 +21°C° 0 mm 2 mps 746 mmHg 56%
    18:00 +19°C° 0 mm 2 mps 746 mmHg 64%
    19:00 +17°C° 0 mm 2 mps 746 mmHg 71%
    20:00 +15°C° 0 mm 1 mps 746 mmHg 79%
    21:00 +14°C° 0 mm 2 mps 746 mmHg 81%
    22:00 +14°C° 0 mm 2 mps 746 mmHg 83%
    23:00 +13°C° 0 mm 2 mps 746 mmHg 86%

    29 June, Thursday

    Time Temperature Precipitation Wind Pressure Humidity
    00:00 +12°C° 0 mm 2 mps 746 mmHg 87%
    01:00 +12°C° 0 mm 2 mps 746 mmHg 88%
    02:00 +11°C° 0 mm 3 mps 746 mmHg 89%
    03:00 +12°C° 0 mm 3 mps 746 mmHg 88%
    04:00 +13°C° 0 mm 3 mps 746 mmHg 87%
    05:00 +13°C° 0 mm 3 mps 746 mmHg 86%
    06:00 +16°C° 0 mm 3 mps 745 mmHg 84%
    07:00 +17°C° 0 mm 3 mps 745 mmHg 82%
    08:00 +18°C° 0 mm 3 mps 745 mmHg 80%
    09:00 +20°C° 0 mm 4 mps 745 mmHg 79%
    10:00 +21°C° 0 mm 4 mps 745 mmHg 77%
    11:00 +23°C° 0 mm 4 mps 745 mmHg 76%
    12:00 +25°C° 0.4 mm 4 mps 744 mmHg 74%
    13:00 +26°C° 0.4 mm 4 mps 744 mmHg 71%
    14:00 +28°C° 0.4 mm 4 mps 744 mmHg 69%
    15:00 +27°C° 0.9 mm 3 mps 744 mmHg 72%
    16:00 +27°C° 0.9 mm 3 mps 743 mmHg 76%
    17:00 +27°C° 0.9 mm 2 mps 743 mmHg 79%
    18:00 +26°C° 0.4 mm 3 mps 743 mmHg 84%
    19:00 +24°C° 0.4 mm 3 mps 743 mmHg 88%
    20:00 +22°C° 0.4 mm 3 mps 743 mmHg 92%
    21:00 +21°C° 0 mm 3 mps 743 mmHg 93%
    22:00 +21°C° 0 mm 2 mps 743 mmHg 94%
    23:00 +20°C° 0 mm 2 mps 742 mmHg 95%
    Show more